Regional Weather Roundup
Issued by NWS Glasgow, MT

Home | Current Version | Previous Version | Text Only | Print | Product List | Glossary On
Versions: 1 2 3 4 5 6 7 8 9 10 11 12 13 14 15 16 17 18 19 20 21 22 23 24 25 26 27
000
ASUS45 KGGW 280015
RWRGGW
HOURLY REGIONAL WEATHER ROUNDUP FOR NORTHEAST MONTANA
NATIONAL WEATHER SERVICE GLASGOW MONTANA
600 PM MDT TUE JUN 27 2017

NOTE: "FAIR" INDICATES FEW OR NO CLOUDS BELOW 12,000 FEET WITH NO
SIGNIFICANT WEATHER AND/OR OBSTRUCTIONS TO VISISBILITY.

NORTHEAST MONTANA


CITY           SKY/WX    TMP DP  RH WIND       PRES   REMARKS
GLASGOW        PTSUNNY   80  50  34 NW23G31   29.64R
6HR MIN TEMP:  77; 6HR MAX TEMP:  85; 6HR PCP: TRACE;

PLENTYWOOD       N/A     77  51  40 NW16G28     N/A
WOLF POINT     PTSUNNY   86  49  27 NW20      29.60R
JORDAN           N/A     66  61  84 VRB3      29.71S
WINNETT          N/A     75  43  31 NW14G26     N/A
SIDNEY         CLOUDY    82  52  35 N16       29.57R
GLENDIVE       CLOUDY    83  49  30 NW13      29.61R
MALTA            N/A     80  52  37 N12G22      N/A

FORT PECK REPORTS


CITY           SKY/WX    TMP DP  RH WIND       PRES   REMARKS
FORT PECK        N/A     77  55  46 NW20G28     N/A
THE PINES        N/A     77  46  33 CALM        N/A

SOUTHEAST MONTANA


CITY           SKY/WX    TMP DP  RH WIND       PRES   REMARKS
BILLINGS       CLOUDY    75  48  38 N14       29.81R
MILES CITY     PTSUNNY   79  48  33 W10       29.67R
BAKER          CLOUDY    82  47  29 N16       29.64R
LIVINGSTON     MOSUNNY   71  45  39 W21G31    29.87S

CENTRAL MONTANA


CITY           SKY/WX    TMP DP  RH WIND       PRES   REMARKS
HAVRE          MOSUNNY   81  42  25 NW17      29.72S
LEWISTOWN      CLOUDY    70  49  47 NW9       29.82S
GREAT FALLS    PTSUNNY   78  50  37 E14       29.77S
CUT BANK       SUNNY     77  36  22 W18       29.76F
HELENA         PTSUNNY   83  39  21 W16G23    29.79F
BUTTE          PTSUNNY   71  43  36 NW14      29.93F
BOZEMAN        LGT RAIN  62  55  77 NW6       29.92R

WESTERN MONTANA


CITY           SKY/WX    TMP DP  RH WIND       PRES   REMARKS
MISSOULA       SUNNY     82  32  16 W13       29.79F
KALISPELL      NOT AVBL

NORTH DAKOTA


CITY           SKY/WX    TMP DP  RH WIND       PRES   REMARKS
WILLISTON      CLOUDY    80  53  39 N17       29.57R
DICKINSON      CLOUDY    85  43  22 NW18G30   29.53S
MINOT          CLOUDY    82  58  43 SE10      29.52S
BISMARCK       PTSUNNY   85  62  46 SE13      29.49F

SOUTHERN SASKATCHEWAN


CITY           SKY/WX    TMP DP  RH WIND       PRES   REMARKS
REGINA         MOSUNNY   70  61  73 NW23G29   29.58S
MOOSE JAW      MOSUNNY   73  55  53 NW24      29.62R
ESTEVAN        LGT RAIN  72  57  60 NW10G17   29.56S
SWIFT CURRENT  MOSUNNY   70  45  40 NW22      29.69R





USA.gov is the U.S. government's official web portal to all federal, state and local government web resources and services.